Regional Weather Roundup
Issued by NWS Albany, NY

Home | Current Version | Previous Version | Text Only | Print | Product List | Glossary On
Versions: 1 2 3 4 5 6 7 8 9 10 11 12 13 14 15 16 17 18 19 20 21 22 23 24 25 26 27 28 29 30 31 32 33 34 35 36 37 38 39 40 41 42 43 44 45 46 47 48 49 50
000
ASUS41 KALY 031310
RWRALY

NEW YORK STATE HOURLY WEATHER ROUNDUP
NATIONAL WEATHER SERVICE ALBANY NY
900 AM EDT TUE MAY 03 2016

NOTE: "FAIR" INDICATES FEW OR NO CLOUDS BELOW 12,000 FEET WITH NO
SIGNIFICANT WEATHER AND/OR NO OBSTRUCTIONS TO VISIBILITY.

NYZ032-033-038>043-046>054-057>066-NYZ062>081-082-084-031400-
EAST


CITY           SKY/WX    TMP DP  RH WIND       PRES   REMARKS
ALBANY         CLOUDY    49  42  77 NE6       29.93S
GLENS FALLS    CLOUDY    47  40  76 NE8       29.94R
POUGHKEEPSIE   LGT RAIN  51  48  89 N7        29.89F FOG
NEWBURGH       LGT RAIN  48  48 100 NE9       29.90F FOG
MONTGOMERY     LGT RAIN  50  47  89 NE9       29.88F
WHITE PLAINS   LGT RAIN  51  49  92 NE6       29.87S FOG
ISLIP          LGT RAIN  53  51  93 NE6       29.86S FOG
NEW YORK CITY  LGT RAIN  54  50  87 NE15G25   29.86F
CENTRAL PARK   LGT RAIN  52  50  93 VRB7      29.89F FOG
$$

NYZ005>009-017-018-044>046-055-056-031400-
CENTRAL


CITY           SKY/WX    TMP DP  RH WIND       PRES   REMARKS
FULTON         FAIR      51  44  77 VRB3      29.93S
SYRACUSE       CLOUDY    42  42 100 CALM      29.93S
ROME           CLOUDY    43  42  97 SW3       29.94S
ELMIRA         CLOUDY    46  40  79 NE6       29.90F
BINGHAMTON     CLOUDY    43  41  93 CALM      29.89S
MONTICELLO     CLOUDY    46  46 100 E3        29.89F
$$

NYZ026>034-041>043-087-031400-
NORTH


CITY           SKY/WX    TMP DP  RH WIND       PRES   REMARKS
WATERTOWN      FAIR      46  41  82 NE8       29.93F
FORT DRUM      NOT AVBL
MASSENA        FOG       41  40  96 CALM      29.98S VSB 1/2
SARANAC LAKE   PTSUNNY   44  35  70 N5        29.90S
PLATTSBURGH    NOT AVBL
$$

NYZ001>004-010>016-019>021-085-031400-
WEST


CITY           SKY/WX    TMP DP  RH WIND       PRES   REMARKS
NIAGARA FALLS  PTSUNNY   50  41  71 NE8       29.91F
BUFFALO        FAIR      47  41  80 E8        29.90F
DUNKIRK        CLOUDY    46  42  86 NE3       29.90F
JAMESTOWN      CLOUDY    43  39  87 N6        29.87S
WELLSVILLE     CLOUDY    44  40  85 VRB3      29.88S
ROCHESTER      PTSUNNY   48  42  80 NE5       29.93S
PENN YAN       CLOUDY    42  41  96 CALM      29.93S FOG
$$

             KEY
       WCI = WIND CHILL INDEX
       VSB = VISIBILITY
       HX  = HEAT INDEX
$$



USA.gov is the U.S. government's official web portal to all federal, state and local government web resources and services.